| time (UTC) | temp C | wind direction | speed KPH | gust KPH | rain 1hr cm | rain 24hr cm | rain mn cm | humidity % | barometer mb |
| 20260505081543 | 11 | 0.0 | 0.0 | 0.00 | 0.00 | 0.00 | 87 | 1011.0 | |
| 20260505080836 | 11 | 20 | 9.7 | 0.0 | 0.00 | 0.00 | 0.00 | 93 | 1011.0 |
| 20260505080043 | 11 | 20 | 9.7 | 0.0 | 0.00 | 0.00 | 0.00 | 93 | 1011.0 |
| 20260505074839 | 11 | 20 | 9.7 | 0.0 | 0.00 | 0.00 | 0.00 | 93 | 1011.0 |
| 20260505074541 | 11 | 20 | 9.7 | 0.0 | 0.00 | 0.00 | 0.00 | 93 | 1011.0 |
| 20260505073040 | 10 | 290 | 3.2 | 0.0 | 0.00 | 0.00 | 0.00 | 100 | 1011.0 |
| 20260505072838 | 10 | 290 | 3.2 | 0.0 | 0.00 | 0.00 | 0.00 | 100 | 1011.0 |
| 20260505071542 | 10 | 290 | 3.2 | 0.0 | 0.00 | 0.00 | 0.00 | 100 | 1011.0 |
| 20260505070836 | 10 | 300 | 8.0 | 0.0 | 0.00 | 0.00 | 0.00 | 93 | 1011.0 |
| 20260505070041 | 10 | 300 | 8.0 | 0.0 | 0.00 | 0.00 | 0.00 | 93 | 1011.0 |
| 20260505064840 | 10 | 300 | 8.0 | 0.0 | 0.00 | 0.00 | 0.00 | 93 | 1011.0 |
| 20260505064541 | 10 | 300 | 8.0 | 0.0 | 0.00 | 0.00 | 0.00 | 93 | 1011.0 |
| 20260505063040 | 10 | 300 | 11.3 | 0.0 | 0.00 | 0.00 | 0.00 | 93 | 1011.0 |
| 20260505062838 | 10 | 300 | 11.3 | 0.0 | 0.00 | 0.00 | 0.00 | 93 | 1011.0 |
| 20260505061543 | 10 | 300 | 11.3 | 0.0 | 0.00 | 0.00 | 0.00 | 93 | 1011.0 |
| 20260505060836 | 11 | 0.0 | 0.0 | 0.00 | 0.00 | 0.00 | 87 | 1011.0 | |
| 20260505060043 | 11 | 0.0 | 0.0 | 0.00 | 0.00 | 0.00 | 87 | 1011.0 | |
| 20260505054840 | 11 | 0.0 | 0.0 | 0.00 | 0.00 | 0.00 | 87 | 1011.0 | |
| 20260505054541 | 11 | 0.0 | 0.0 | 0.00 | 0.00 | 0.00 | 87 | 1011.0 | |
| 20260505053040 | 10 | 0.0 | 0.0 | 0.00 | 0.00 | 0.00 | 93 | 1011.0 | |
| 20260505052838 | 10 | 0.0 | 0.0 | 0.00 | 0.00 | 0.00 | 93 | 1011.0 | |
| 20260505051542 | 10 | 0.0 | 0.0 | 0.00 | 0.00 | 0.00 | 93 | 1011.0 | |
| 20260505050836 | 7 | 120 | 4.8 | 0.0 | 0.00 | 0.00 | 0.00 | 100 | 1011.0 |
| 20260505041542 | 8 | 50 | 3.2 | 0.0 | 0.00 | 0.00 | 0.00 | 93 | 1011.0 |
| 20260505040836 | 8 | 0.0 | 0.0 | 0.00 | 0.00 | 0.00 | 93 | 1011.0 | |
| 20260505040041 | 8 | 0.0 | 0.0 | 0.00 | 0.00 | 0.00 | 93 | 1011.0 | |
| 20260505034839 | 8 | 0.0 | 0.0 | 0.00 | 0.00 | 0.00 | 93 | 1011.0 | |
| 20260505034541 | 8 | 0.0 | 0.0 | 0.00 | 0.00 | 0.00 | 93 | 1011.0 | |
| 20260505033040 | 7 | 130 | 3.2 | 0.0 | 0.00 | 0.00 | 0.00 | 93 | 1011.0 |
| 20260505032838 | 7 | 130 | 3.2 | 0.0 | 0.00 | 0.00 | 0.00 | 93 | 1011.0 |
| 20260505031542 | 7 | 130 | 3.2 | 0.0 | 0.00 | 0.00 | 0.00 | 93 | 1011.0 |
| 20260505030836 | 7 | 0.0 | 0.0 | 0.00 | 0.00 | 0.00 | 100 | 1011.0 | |
| 20260505030043 | 7 | 0.0 | 0.0 | 0.00 | 0.00 | 0.00 | 100 | 1011.0 | |
| 20260505024838 | 7 | 0.0 | 0.0 | 0.00 | 0.00 | 0.00 | 100 | 1011.0 | |
| 20260505024541 | 7 | 0.0 | 0.0 | 0.00 | 0.00 | 0.00 | 100 | 1011.0 | |
| 20260505023040 | 7 | 100 | 1.6 | 0.0 | 0.00 | 0.00 | 0.00 | 93 | 1011.0 |
| 20260505022836 | 7 | 100 | 1.6 | 0.0 | 0.00 | 0.00 | 0.00 | 93 | 1011.0 |
| 20260505021543 | 7 | 100 | 1.6 | 0.0 | 0.00 | 0.00 | 0.00 | 93 | 1011.0 |
| 20260505020835 | 7 | 330 | 1.6 | 0.0 | 0.00 | 0.00 | 0.00 | 100 | 1011.0 |
| 20260505020045 | 7 | 330 | 1.6 | 0.0 | 0.00 | 0.00 | 0.00 | 100 | 1011.0 |
| 20260505014839 | 7 | 330 | 1.6 | 0.0 | 0.00 | 0.00 | 0.00 | 100 | 1011.0 |
| 20260505014546 | 7 | 330 | 1.6 | 0.0 | 0.00 | 0.00 | 0.00 | 100 | 1011.0 |
| 20260505013044 | 7 | 130 | 3.2 | 0.0 | 0.00 | 0.00 | 0.00 | 100 | 1011.0 |
| 20260505012837 | 7 | 130 | 3.2 | 0.0 | 0.00 | 0.00 | 0.00 | 100 | 1011.0 |
| 20260505011547 | 7 | 130 | 3.2 | 0.0 | 0.00 | 0.00 | 0.00 | 100 | 1011.0 |
| 20260505010836 | 7 | 120 | 4.8 | 0.0 | 0.00 | 0.00 | 0.00 | 100 | 1012.0 |
| 20260505010044 | 7 | 120 | 4.8 | 0.0 | 0.00 | 0.00 | 0.00 | 100 | 1012.0 |
| 20260505004839 | 7 | 120 | 4.8 | 0.0 | 0.00 | 0.00 | 0.00 | 100 | 1012.0 |
| 20260505004542 | 7 | 120 | 4.8 | 0.0 | 0.00 | 0.00 | 0.00 | 100 | 1012.0 |
| 20260505003042 | 7 | 0.0 | 0.0 | 0.00 | 0.00 | 0.00 | 100 | 1012.0 | |
| 20260505002837 | 7 | 0.0 | 0.0 | 0.00 | 0.00 | 0.00 | 100 | 1012.0 | |
| 20260505001547 | 7 | 0.0 | 0.0 | 0.00 | 0.00 | 0.00 | 100 | 1012.0 | |
| 20260505000836 | 8 | 0.0 | 0.0 | 0.00 | 0.00 | 0.00 | 93 | 1012.0 | |
| 20260505000046 | 8 | 0.0 | 0.0 | 0.00 | 0.00 | 0.00 | 93 | 1012.0 | |
| 20260504234839 | 8 | 0.0 | 0.0 | 0.00 | 0.00 | 0.00 | 93 | 1012.0 | |
| 20260504234546 | 8 | 0.0 | 0.0 | 0.00 | 0.00 | 0.00 | 93 | 1012.0 | |
| 20260504233039 | 8 | 350 | 1.6 | 0.0 | 0.00 | 0.00 | 0.00 | 100 | 1012.0 |
| 20260504232837 | 8 | 350 | 1.6 | 0.0 | 0.00 | 0.00 | 0.00 | 100 | 1012.0 |
| 20260504231543 | 8 | 350 | 1.6 | 0.0 | 0.00 | 0.00 | 0.00 | 100 | 1012.0 |
| 20260504230836 | 10 | 140 | 1.6 | 0.0 | 0.00 | 0.00 | 0.00 | 93 | 1012.0 |
| 20260504230042 | 10 | 140 | 1.6 | 0.0 | 0.00 | 0.00 | 0.00 | 93 | 1012.0 |
| 20260504224839 | 10 | 140 | 1.6 | 0.0 | 0.00 | 0.00 | 0.00 | 93 | 1012.0 |
| 20260504224541 | 10 | 140 | 1.6 | 0.0 | 0.00 | 0.00 | 0.00 | 93 | 1012.0 |
| 20260504223039 | 8 | 120 | 4.8 | 0.0 | 0.00 | 0.00 | 0.00 | 100 | 1012.0 |
| 20260504222837 | 8 | 120 | 4.8 | 0.0 | 0.00 | 0.00 | 0.00 | 100 | 1012.0 |
| 20260504221549 | 8 | 120 | 4.8 | 0.0 | 0.00 | 0.00 | 0.00 | 100 | 1012.0 |
| 20260504220836 | 10 | 0.0 | 0.0 | 0.00 | 0.00 | 0.00 | 87 | 1012.0 | |
| 20260504220041 | 10 | 0.0 | 0.0 | 0.00 | 0.00 | 0.00 | 87 | 1012.0 | |
| 20260504214845 | 10 | 0.0 | 0.0 | 0.00 | 0.00 | 0.00 | 87 | 1012.0 | |
| 20260504214541 | 10 | 0.0 | 0.0 | 0.00 | 0.00 | 0.00 | 87 | 1012.0 | |
| 20260504213039 | 11 | 0.0 | 0.0 | 0.00 | 0.00 | 0.00 | 87 | 1012.0 | |
| 20260504212843 | 11 | 0.0 | 0.0 | 0.00 | 0.00 | 0.00 | 87 | 1012.0 | |
| 20260504211542 | 11 | 0.0 | 0.0 | 0.00 | 0.00 | 0.00 | 87 | 1012.0 | |
| 20260504210842 | 11 | 0.0 | 0.0 | 0.00 | 0.00 | 0.00 | 87 | 1013.0 | |
| 20260504210040 | 11 | 0.0 | 0.0 | 0.00 | 0.00 | 0.00 | 87 | 1013.0 | |
| 20260504204838 | 11 | 0.0 | 0.0 | 0.00 | 0.00 | 0.00 | 87 | 1013.0 | |
| 20260504204542 | 11 | 0.0 | 0.0 | 0.00 | 0.00 | 0.00 | 87 | 1013.0 | |
| 20260504203040 | 12 | 0.0 | 0.0 | 0.00 | 0.00 | 0.00 | 76 | 1013.0 | |
| 20260504202836 | 12 | 0.0 | 0.0 | 0.00 | 0.00 | 0.00 | 76 | 1013.0 | |
| 20260504201542 | 12 | 0.0 | 0.0 | 0.00 | 0.00 | 0.00 | 76 | 1013.0 | |
| 20260504200834 | 13 | 0.0 | 0.0 | 0.00 | 0.00 | 0.00 | 71 | 1013.0 | |
| 20260504200042 | 13 | 0.0 | 0.0 | 0.00 | 0.00 | 0.00 | 71 | 1013.0 | |
| 20260504194838 | 13 | 0.0 | 0.0 | 0.00 | 0.00 | 0.00 | 71 | 1013.0 | |
| 20260504194543 | 13 | 0.0 | 0.0 | 0.00 | 0.00 | 0.00 | 71 | 1013.0 | |
| 20260504193039 | 13 | 360 | 4.8 | 0.0 | 0.00 | 0.00 | 0.00 | 71 | 1013.0 |
| 20260504192836 | 13 | 360 | 4.8 | 0.0 | 0.00 | 0.00 | 0.00 | 71 | 1013.0 |
| 20260504191542 | 13 | 360 | 4.8 | 0.0 | 0.00 | 0.00 | 0.00 | 71 | 1013.0 |
| 20260504190834 | 15 | 10 | 4.8 | 0.0 | 0.00 | 0.00 | 0.00 | 67 | 1012.0 |
| 20260504190042 | 15 | 10 | 4.8 | 0.0 | 0.00 | 0.00 | 0.00 | 67 | 1012.0 |
| 20260504184838 | 15 | 10 | 4.8 | 0.0 | 0.00 | 0.00 | 0.00 | 67 | 1012.0 |
| 20260504184541 | 15 | 10 | 4.8 | 0.0 | 0.00 | 0.00 | 0.00 | 67 | 1012.0 |
| 20260504183039 | 15 | 10 | 9.7 | 0.0 | 0.00 | 0.00 | 0.00 | 67 | 1012.0 |
| 20260504182837 | 15 | 10 | 9.7 | 0.0 | 0.00 | 0.00 | 0.00 | 67 | 1012.0 |
| 20260504181542 | 15 | 10 | 9.7 | 0.0 | 0.00 | 0.00 | 0.00 | 67 | 1012.0 |
| 20260504180835 | 16 | 360 | 11.3 | 0.0 | 0.00 | 0.00 | 0.00 | 63 | 1012.0 |
| 20260504180040 | 16 | 360 | 11.3 | 0.0 | 0.00 | 0.00 | 0.00 | 63 | 1012.0 |
| 20260504174837 | 16 | 360 | 11.3 | 0.0 | 0.00 | 0.00 | 0.00 | 63 | 1012.0 |
| 20260504174541 | 16 | 360 | 11.3 | 0.0 | 0.00 | 0.00 | 0.00 | 63 | 1012.0 |
| 20260504173039 | 17 | 10 | 11.3 | 0.0 | 0.00 | 0.00 | 0.00 | 63 | 1012.0 |
| 20260504172836 | 17 | 10 | 11.3 | 0.0 | 0.00 | 0.00 | 0.00 | 63 | 1012.0 |
| 20260504171542 | 17 | 10 | 11.3 | 0.0 | 0.00 | 0.00 | 0.00 | 63 | 1012.0 |
| 20260504170834 | 17 | 350 | 12.9 | 0.0 | 0.00 | 0.00 | 0.00 | 63 | 1012.0 |
| 20260504150834 | 18 | 360 | 11.3 | 0.0 | 0.00 | 0.00 | 0.00 | 59 | 1012.0 |
| 20260504140840 | 18 | 310 | 19.3 | 0.0 | 0.00 | 0.00 | 0.00 | 55 | 1012.0 |